Regional Weather Roundup
Issued by NWS Sioux Falls, SD

Home | Current Version | Previous Version | Text Only | Print | Product List | Glossary Off
Versions: 1 2 3 4 5 6 7 8 9 10 11 12 13 14 15 16 17 18 19 20 21 22 23 24 25 26 27 28 29 30 31 32 33 34 35 36 37 38 39 40 41 42 43 44 45 46 47 48 49 50

000
ASUS43 KFSD 152010
RWRFSD

WEATHER ROUNDUP FOR SE SOUTH DAKOTA/SW MINNESOTA/NW IOWA
NATIONAL WEATHER SERVICE SIOUX FALLS SD
300 PM CDT MON SEP 15 2014

NOTE: "FAIR" INDICATES FEW OR NO CLOUDS BELOW 12,000 FEET WITH NO
SIGNIFICANT WEATHER AND OR OBSTRUCTIONS TO VISIBILITY.


SDZ038>040-050-052>070-152100-
SOUTHEAST SOUTH DAKOTA

CITY           SKY/WX    TMP DP  RH WIND       PRES   REMARKS
CHAMBERLAIN    SUNNY     63  33  32 NE6       30.26F
HURON          SUNNY     63  34  33 N8        30.26F
MADISON        FAIR      59  37  44 W7        30.26F
MITCHELL       SUNNY     62  36  37 VRB6      30.27F
SIOUX FALLS    PTSUNNY   60  43  53 N8        30.26S
WINNER         FAIR      64  35  34 N6        30.28F
YANKTON        MOSUNNY   61  39  44 NW9       30.27S
$$

MNZ071-072-080-081-089-090-097-098-152100-
SOUTHWEST MINNESOTA

CITY           SKY/WX    TMP DP  RH WIND       PRES   REMARKS
FAIRMONT       CLOUDY    61  34  36 N10       30.23S
JACKSON        PTSUNNY   59  36  41 NE8       30.24F
LUVERNE        PTSUNNY   59  37  44 N7        30.26S
MARSHALL       MOSUNNY   61  37  41 N8        30.23F
MONTEVIDEO     MOSUNNY   64  39  39 N10       30.24F
PIPESTONE      PTSUNNY   57  37  47 N6        30.25S
REDWOOD FALLS  MOSUNNY   62  38  40 NW13      30.23F
TRACY          PTSUNNY   61  41  47 CALM      30.24F
WINDOM         MOSUNNY   61  37  41 N10       30.24S
WORTHINGTON    PTSUNNY   57  37  47 NW8       30.25S
$$

IAZ001>003-012>014-020>022-031-032-NEZ013-014-SDZ071-152100-
NORTHWEST IOWA

CITY           SKY/WX    TMP DP  RH WIND       PRES   REMARKS
CHEROKEE       PTSUNNY   58  43  56 N8G16     30.24F
DENISON        CLOUDY    57  46  67 NE13      30.23R
ESTHERVILLE    PTSUNNY   61  40  45 N13       30.23S
LE MARS        PTSUNNY   63  43  48 N10       30.26S
ORANGE CITY    CLOUDY    63  37  39 N9        30.25F
SHELDON        PTSUNNY   61  41  48 N12       30.24S
SIOUX CITY     PTSUNNY   62  43  49 NE13G20   30.26S
SPENCER        CLOUDY    61  41  47 N9        30.24F
STORM LAKE     PTSUNNY   57  50  77 VRB7G14   30.24F
$$

ABBREVIATIONS USED IN REMARKS
   TC - TEMPERATURE IN CELSIUS
  WCI - WIND CHILL INDEX
   HX - HEAT INDEX
  VSB - VISIBILITY



USA.gov is the U.S. government's official web portal to all federal, state and local government web resources and services.